Flag for United Kingdom Weather past 2 weeks in Nottingham, England, United Kingdom

Now
48 °F

Broken clouds.


Feels Like: 44 °F
Forecast: 34 / 60 °F
Wind: 10 mph from North

Location: East Midlands

Current Time: Apr 19, 2015 at 1:45:26 PM

Latest Report: Apr 19, 2015 at 12:50 PM


Visibility: N/A

Pressure: 30.27 "Hg

Humidity: 71%

Dew point: 39 °F

Location of NottinghamLocation

Historic Weather in Nottingham — Graph

°F

Nottingham temperature yesterday

Maximum temperature yesterday: 57 °F (at 2:50 PM)
Minimum temperature yesterday: 37 °F (at 4:50 AM)
Average temperature yesterday: 46 °F

Past Weeks' High & Low Weather Summary

 TemperatureHumidityPressure
High68 °F (Apr 10, 4:20 PM)100% (Apr 5, 7:20 AM)30.63 "Hg (Apr 5, 7:20 AM)
Low34 °F (Apr 13, 4:50 AM)36% (Apr 11, 3:20 PM)29.77 "Hg (Apr 11, 4:50 AM)
Average50 °F73%30.26 "Hg
* Reported Apr 4 12:20 PM — Apr 19 12:20 PM, Nottingham, Weather by CustomWeather, © 2015

Note: Actual official high and low records may vary slightly from our data, if they occured in-between our weather recording intervals... More about our weather records

Advertising

Nottingham weather history for previous 24 hours

 ConditionsComfort  
Time TempWeatherWind HumidityBarometerVisibility
12:20 PM
Sun, Apr 19
46 °FBroken clouds.10 mph71%30.27 "HgN/A
11:50 AM48 °FBroken clouds.14 mph62%30.27 "HgN/A
11:20 AM46 °FBroken clouds.9 mph71%30.27 "HgN/A
10:50 AM48 °FBroken clouds.9 mph66%30.30 "HgN/A
9:50 AM46 °FPartly sunny.9 mph71%30.30 "HgN/A
8:50 AM45 °FPartly sunny.6 mph71%30.30 "HgN/A
8:20 AM45 °FPartly sunny.7 mph71%30.33 "HgN/A
7:50 AM43 °FPartly sunny.6 mph76%30.33 "HgN/A
7:20 AM43 °FPartly sunny.6 mph76%30.33 "HgN/A
6:50 AM43 °FPassing clouds.7 mph76%30.33 "HgN/A
6:20 AM41 °FPassing clouds.7 mph76%30.33 "HgN/A
5:50 AM41 °FPassing clouds.6 mph76%30.33 "HgN/A
5:20 AM41 °FPassing clouds.10 mph76%30.33 "HgN/A
4:20 AM41 °FPassing clouds.10 mph76%30.33 "HgN/A
3:50 AM41 °FPassing clouds.8 mph76%30.36 "HgN/A
3:20 AM41 °FPassing clouds.10 mph76%30.36 "HgN/A
2:50 AM41 °FPassing clouds.8 mph76%30.36 "HgN/A
2:20 AM41 °FPassing clouds.12 mph76%30.39 "HgN/A
1:50 AM41 °FPassing clouds.12 mph76%30.39 "HgN/A
1:20 AM41 °FPassing clouds.12 mph76%30.39 "HgN/A
12:20 AM37 °FClear.9 mph87%30.39 "Hg10 mi
11:50 PM
Sat, Apr 18
39 °FPassing clouds.9 mph81%30.42 "HgN/A
11:20 PM41 °FPassing clouds.9 mph76%30.42 "HgN/A
10:50 PM43 °FPassing clouds.10 mph81%30.42 "HgN/A
10:20 PM41 °FPassing clouds.9 mph87%30.42 "HgN/A
9:50 PM41 °FClear.10 mph81%30.42 "Hg10 mi
9:20 PM43 °FClear.12 mph81%30.42 "Hg10 mi
8:50 PM45 °FSunny.14 mph76%30.39 "Hg10 mi
8:20 PM45 °FSunny.9 mph76%30.39 "Hg10 mi
7:50 PM46 °FSunny.13 mph71%30.39 "Hg10 mi
7:20 PM48 °FSunny.13 mph66%30.39 "Hg10 mi
6:50 PM50 °FSunny.15 mph62%30.39 "Hg10 mi
6:20 PM52 °FSunny.16 mph58%30.39 "Hg10 mi
5:50 PM54 °FSunny.18 mph54%30.39 "Hg10 mi
5:20 PM54 °FPassing clouds.16 mph54%30.39 "HgN/A
4:50 PM55 °FPassing clouds.15 mph51%30.39 "HgN/A
4:20 PM57 °FPassing clouds.18 mph48%30.39 "HgN/A
3:50 PM57 °FPassing clouds.17 mph44%30.39 "HgN/A
3:20 PM57 °FPassing clouds.15 mph48%30.39 "HgN/A
2:50 PM57 °FPassing clouds.16 mph51%30.39 "HgN/A
2:20 PM55 °FPassing clouds.15 mph51%30.42 "HgN/A
1:50 PM55 °FPassing clouds.15 mph51%30.42 "HgN/A
1:20 PM55 °FPassing clouds.14 mph51%30.42 "HgN/A
Weather by CustomWeather, © 2015

See weather overviewHow to use our weather pages